Location: Unspecified
(0.0000°N, 0.0000°E)
Time: 13:42:43
(UTC+00:00)

LEMUR 2 YNDRD - Visible Passes

Search period start: 28 November 2023 00:00
Search period end: 08 December 2023 00:00
Orbit: 419 x 440 km, 97.7° (Epoch: 27 November)

Date Brightness Start Highest point End Pass type
(mag) Time Alt. Az. Time Alt. Az. Time Alt. Az.
28 Nov ? 05:10:11 10° N 05:13:14 38° WNW 05:16:19 10° SSW visible
29 Nov ? 04:29:12 10° NE 04:32:08 30° ESE 04:35:04 10° SSE visible
30 Nov ? 05:20:09 10° NNW 05:22:55 26° WNW 05:25:44 10° SW visible
01 Dec ? 04:38:25 10° NNE 04:41:33 45° E 04:44:43 10° S visible
03 Dec ? 04:47:12 10° NNE 04:50:26 67° ESE 04:53:42 10° S visible
04 Dec ? 04:07:32 10° E 04:08:41 11° ESE 04:09:51 10° ESE visible
05 Dec ? 04:55:31 10° N 04:58:46 84° WNW 05:02:04 10° SSW visible
06 Dec ? 04:14:46 10° ENE 04:16:46 15° ESE 04:18:46 10° SE visible
07 Dec ? 05:03:22 10° N 05:06:34 59° WNW 05:09:48 10° SSW visible
